�N����,�~����,���ϋC��,�ō��C��,�Œ�C��,���x,�C��,�ő�����,���ϕ���,�ő�u�ԕ���,�ő厞����,����,�I�_���x,����,�Ǝ���,������,���ʏ���,�n�����x
2017/1/1,0,6.2,13.7,1.7,83.7,1019.8,WNW,1.6,6.2,WSW,13.12,3.3,9.7,9.7,5.09,2.2,8.2
2017/1/2,0,5.8,12.3,0.2,87.8,1014.1,WNW,1.8,4.8,SW,9.9,3.8,6.5,9.7,3.1,1.7,7.8
2017/1/3,0.2,5.9,12.1,1.7,89.7,1012.6,WNW,2,8.8,NNW,8.61,4.3,5,9.7,2.32,1.5,7.6
2017/1/4,0.2,5.2,13,0.4,88.9,1013.3,WNW,1.8,9.5,NNW,7.5,3.3,3.7,9.7,1.57,1.3,7.1
2017/1/5,0,5.9,8.7,3.1,67.8,1017,NW,2.5,10.8,NW,5.93,0.2,2,9.7,0.23,2.3,7.2
2017/1/6,0,5.4,10.1,0.1,69.1,1018.5,NW,2.5,8.3,NNW,11.88,0,8.5,9.7,4.06,2.9,7.4
2017/1/7,0,4,10.8,-2.6,80.7,1015.6,NW,1.6,5.4,NW,11.51,0.7,8.1,9.8,4.03,2,6.6
2017/1/8,20.8,5.6,7.1,4.3,91.4,1004.8,NW,2.2,6.7,NW,0.86,4.4,0,9.8,-2.64,0.5,7
2017/1/9,1.2,7.2,10.9,4.7,92.2,1002.1,WNW,1.8,8.8,NNW,4.95,6,0.8,9.8,0.09,0.9,7.8
2017/1/10,0.8,7.9,13.2,3.8,77.9,1009,WNW,2.3,7.9,NNW,12.49,4,9,9.8,4.72,2.8,8.3
2017/1/11,0,5.2,9.1,2.1,75.4,1010.4,NW,2.4,8.8,NNW,9.45,1,5.6,9.8,2.66,2.2,7.5
2017/1/12,0,4.8,9.3,1.4,68.3,1006.3,WNW,2.5,9.1,NNW,8.67,-0.7,4.7,9.8,2.04,2.5,6.7
2017/1/13,0,4.2,8.5,0.3,70.5,1001.8,WNW,3,12.1,NW,7.03,-0.8,2.9,9.9,1.01,2.3,6
2017/1/14,1.2,1.1,3.6,-2.3,88.4,1001.9,WNW,3.7,34.2,ESE,7.22,-0.6,3.1,9.9,1.37,1.4,4.9
2017/1/15,4.6,0.1,3.8,-2.6,98.2,1007.7,WNW,2.3,37.1,ESE,9.57,-0.1,5.5,9.9,3.05,1.1,4.1
2017/1/16,15.8,1.8,4.2,0.3,95.3,1011.3,N,1.2,19,SE,11.36,1.2,7.4,9.9,4.24,1.4,3.5
2017/1/17,2.4,2.7,6.9,-0.5,90.3,1020.8,WNW,1.6,6,SW,10.49,1.3,6.4,9.9,3.62,1.5,3.8
2017/1/18,0.2,2.5,9.9,-3.1,85.3,1021.3,WNW,1.4,4.7,NW,13.26,0,9.3,10,5.39,1.9,4.2
2017/1/19,0,3.9,8.5,0.1,84.2,1015,NW,2.2,8.3,NNW,9.01,1.3,4.7,10,2.59,1.7,5.1
2017/1/20,3.6,2.8,8.9,-2.6,85.8,1003.7,WNW,2.2,9.7,NW,7.16,0.5,2.7,10,1.38,1.3,4.4
2017/1/21,4.8,3.3,7.3,0.1,84.7,1014.7,NW,2.7,20.1,NNE,10.72,0.9,6.4,10,3.75,2,5.1
2017/1/22,0.8,2.5,8.8,-0.9,86.5,1010.8,WNW,1.9,11.1,NW,8.29,0.4,3.8,10,2.16,1.4,4.9
2017/1/23,0.2,1,4.2,-1.3,84.7,1011.7,WNW,2.4,9.3,NNW,9.79,-1.3,5.3,10.1,3.13,1.6,4.2
2017/1/24,0.6,0.9,4.2,-1,88.7,1017.6,WNW,3.8,35.6,ESE,8.78,-0.7,4.2,10.1,2.52,1.6,4.1
2017/1/25,0.2,1.2,7.8,-2,88.7,1022.3,NW,5.2,38.5,ESE,11.23,-0.5,6.6,10.1,4.19,2.1,4.2
2017/1/26,0.2,1.8,9.6,-3.2,84.1,1021.7,NW,1.7,5,NNW,14.45,-0.9,9.8,10.2,6.32,2.1,4.5
2017/1/27,0,4.7,12.6,-2,81,1017.2,NW,1.9,7.9,WNW,8.55,1.3,3.8,10.2,2.35,1.7,5
2017/1/28,0.2,5.6,12.4,1.1,73.8,1019.5,WNW,2.2,6.6,NW,15.34,0.7,10.2,10.2,6.81,3.1,6.1
2017/1/29,11.2,5.5,11,-1.1,85,1014,WNW,1.3,5.7,NW,6.04,2.9,1.1,10.2,0.77,1.1,6.1
2017/1/30,2.8,7.7,12.3,3,88.8,1005.8,NW,2.3,17.7,ESE,6.7,5.9,1.7,10.3,1.38,1.4,7.6
2017/1/31,0.4,3.1,5.7,0.5,81.4,1017.4,NW,2.3,8.1,NW,7.52,0.2,2.5,10.3,1.68,1.6,6.1
2017/2/1,0.8,2.9,7.6,-2.7,86,1012.9,NW,2.4,9.6,WNW,6.44,0.7,1.4,10.3,1.01,1.3,5.3
2017/2/2,1,3.8,6.3,1.2,87,1014.2,WNW,3.1,8.6,NW,12.32,1.8,7.1,10.3,5.06,2.2,5.9
2017/2/3,0.2,5.5,10.7,0.7,80.5,1015.1,WNW,2.4,8.3,NW,11.17,2.2,5.9,10.4,4.22,2.3,6.5
2017/2/4,0,5.2,13.3,-1.1,79.8,1014.6,WNW,1.8,5.8,NW,15.93,1.5,10.4,10.4,7.47,2.7,6.7
2017/2/5,15.2,5.5,7.7,1.7,96.8,1005,NW,1.2,4.2,NW,1.12,5.1,0,10.4,-2.36,0.2,6.5
2017/2/6,4.2,5.6,9.5,2.8,88.7,1003.4,NW,2.6,12.3,NW,10.14,3.9,4.7,10.5,3.71,1.9,7.1
2017/2/7,0.2,3.5,6.3,1.8,72,1012.5,NW,3.1,24,NE,8.02,-1,2.6,10.5,1.95,2.3,5.6
2017/2/8,0,4.2,8.7,1.5,70.7,1010.4,WNW,2.1,6.8,NNW,8.28,-0.8,2.8,10.5,2.13,2.1,5.8
2017/2/9,5.2,2.4,3.5,1.1,93.8,998.3,NW,1.1,5.8,NW,2.19,1.6,0,10.5,-1.78,0.4,5.4
2017/2/10,0.8,1.9,4.4,-0.1,85,998.7,W,3,16.7,NNW,8.99,-0.4,3.3,10.6,2.83,1.7,4.8
2017/2/11,2.6,1.5,5.3,-1.2,85.5,1007.3,NW,2.5,9.6,NNW,11.13,-0.7,5.3,10.6,4.34,1.8,5
2017/2/12,0.6,2,6.7,-1.5,85,1015.1,NW,2.6,11.8,N,16.58,-0.4,10.2,10.6,8.16,2.6,5.3
2017/2/13,0,2.5,8.1,-1.6,87,1019.4,WNW,2,9.5,NNE,10.63,0.5,4.6,10.7,4.05,1.7,5.2
2017/2/14,0.4,2.9,8.3,-1.4,86.6,1020.1,NW,2.3,13.2,NNW,13.69,0.8,7.4,10.7,6.21,2.2,5.5
2017/2/15,0,3.8,9.8,-1.2,79.3,1022.4,WNW,2.1,7.4,NNW,10.9,0.2,4.7,10.7,4.18,2.1,5.8
2017/2/16,0,5.3,15,-2.5,76.5,1018.9,WNW,1.7,5.6,SSW,17.1,0.9,10.2,10.8,8.5,3,6.3
2017/2/17,1.4,7.4,11.3,3.1,91.4,1011.4,WNW,1.9,9,NW,0.74,6.1,0,10.8,-2.59,0.4,6.9
2017/2/18,0.8,6.3,10.2,2.7,78.8,1009.2,NW,2.6,14.4,NNW,7.61,2.8,1.6,10.8,1.96,2,7.1
2017/2/19,0.4,4.6,10.3,0.8,79.3,1012.6,WNW,2.3,8.5,NW,16.72,1.1,9.6,10.9,8.34,3,7
2017/2/20,5.4,7.1,14.3,3.3,84.3,1002.8,NW,3.1,16.3,NNW,0.51,4.7,0,10.9,-2.88,1,7
2017/2/21,1,3.1,6,1,79.3,1017.9,NW,3.6,33,ESE,10.45,-0.2,3.9,11,3.93,2.4,5.9
2017/2/22,0.6,4.9,10.4,-1.9,76.2,1016.3,WNW,1.5,4.7,NNW,11.97,0.5,5.2,11,5,2.2,6.5
2017/2/23,10,9.1,13.6,5.5,87,1001.3,NW,2.4,10.2,NNW,4.59,7,0,11,0.16,1.3,8.2
2017/2/24,0,4.1,8.1,-0.8,74.5,1011.3,NW,3,11.4,NNW,10.56,-0.2,3.8,11.1,3.99,2.6,6.7
2017/2/25,0,5,11.4,-1.7,73.7,1013.1,NW,1.8,6.4,NW,17.6,0.1,9.7,11.1,9,3.2,7.1
2017/2/26,0,6.4,13.3,-1,69.7,1015,NW,2.3,7.5,NNW,17.49,0.5,9.5,11.1,8.88,3.7,7.8
2017/2/27,0,4.5,8.7,0,70.9,1018.8,NW,3.5,12.7,NW,20.12,-0.6,11.2,11.2,10.78,4.2,7.4
2017/2/28,0,3.5,10.2,-0.8,77.6,1018.3,NW,2.2,7.7,NNW,13.19,-0.3,5.7,11.2,5.96,2.4,6.4
2017/3/1,0.2,5.4,12.8,-1.4,78.8,1013.3,NW,1.9,6.8,SSW,12.48,1.5,4.9,11.3,5.56,2.4,6.9
2017/3/2,2.4,8.8,13.7,5.8,84.3,1002,WNW,1.8,6.2,WSW,10.85,6.1,3.5,11.4,4.62,2.1,8.7
2017/3/3,0.6,6.3,10.5,1.2,76.3,1010.5,NW,2.4,19.5,NE,10.24,2.2,2.9,11.4,3.95,2.4,8.1
2017/3/4,0,7,15.6,-0.2,70.9,1012.7,NW,1.9,6.8,NW,18.22,1.3,9.4,11.4,9.61,3.6,8.2
2017/3/5,0,9.3,15.8,1.4,64.4,1009.6,WNW,1.7,7,NNW,14.83,2.2,6.5,11.5,7.1,3.5,9.1
2017/3/6,0,8.3,13.9,4.8,76.2,1002,WNW,2,11.3,NNW,6.71,4.2,0,11.5,1.5,2,8.8
2017/3/7,0.4,5.1,8.8,0.9,72.2,1002.6,WNW,4,14.6,NNW,16.29,0.3,7.5,11.5,8.27,3.9,7.9
2017/3/8,0,3.2,9.9,-1.9,73.5,1003.4,WNW,1.9,10.2,NNW,14.72,-1.6,6.2,11.6,7.15,2.6,6.8
2017/3/9,0.2,4.1,10.1,-2.4,75.6,1004.1,NW,2.4,9.5,NNW,12.18,-0.2,4.1,11.6,5.36,2.5,6.4
2017/3/10,0.6,5.4,10.2,-0.1,80,1008.9,NW,3.1,13.5,NNW,15.01,2,6.3,11.7,7.53,3,7.1
2017/3/11,0.2,5.2,11.2,1.2,79.3,1015.9,NW,2.1,11.2,NNW,13.58,1.7,5.1,11.7,6.49,2.5,7.1
2017/3/12,0,6.4,14.8,-0.6,68.4,1015.6,WNW,1.6,5,NW,21.6,0,11.3,11.7,12.15,3.9,8.3
2017/3/13,0.2,8.6,14.3,2.8,74.7,1010.6,NW,1.7,6.5,NNW,11,4.2,3,11.8,4.65,2.5,8.9
2017/3/14,0.2,7.9,11.9,3.3,69.9,1005.9,NW,3.1,12.8,NNW,10.42,2.5,2.4,11.8,4.12,3.2,8.9
2017/3/15,7.4,5.2,8.2,3,87.7,1006.7,NW,4,22.6,NE,19.66,3.4,9.5,11.8,11.13,3.5,7.7
2017/3/16,0.2,6.1,11,1.6,76.6,1013.5,NW,3.1,8.7,NNW,13.1,1.9,4.4,11.9,6.17,3,7.9
2017/3/17,0,5.7,11.4,0.9,76.7,1015.3,NW,2.3,9.4,NNW,13.26,1.6,4.5,11.9,6.29,2.7,7.7
2017/3/18,0,7,13.9,-0.1,68.4,1017.3,NW,1.6,7.1,NW,15.53,0.6,6.1,11.9,7.84,3.2,8.3
2017/3/19,0,8.2,16.8,0.2,68.6,1017.3,NW,1.9,8.3,NNW,15.79,2.1,6.3,12,8.07,3.5,8.7
2017/3/20,0.2,10.8,18.1,2.8,59.5,1015.3,NW,1.7,6.8,SE,19.23,1.6,8.8,12,10.43,4.6,10
2017/3/21,30.8,8.7,11.1,6.8,89.9,1003.5,NW,2,8.8,NNW,3.88,7.1,0,12.1,-0.2,1,9.6
2017/3/22,0,7.3,11.6,2.4,68.3,1011.3,NW,2.8,12.7,NNW,14.82,1.4,5.4,12.1,7.37,3.7,8.9
2017/3/23,0,8,13.6,2.4,72.8,1012.3,NW,1.6,7.3,SW,11.95,3.1,3.1,12.1,5.38,2.6,9.1
2017/3/24,0,6.8,11,2.4,64.9,1013.9,NNW,2.6,13.6,NW,17.67,0.1,7.4,12.2,9.41,4.1,9.2
2017/3/25,0,7.1,12.9,0.7,65.2,1013.6,NW,2.2,8.5,NW,18.69,0.4,8.1,12.2,10.18,4.1,9.4
2017/3/26,6.6,7.7,12.6,3.4,81.6,1009.6,NW,2.3,7.8,NNW,8.62,4.7,0.5,12.2,3.11,2.1,9.2
2017/3/27,0.2,7.1,11,1.9,78.2,1008.4,NW,2.8,11.4,NNW,12.31,3.3,3.2,12.3,5.76,2.8,9.1
2017/3/28,0.2,7.4,14.3,-0.2,75.1,1014.5,NW,2.1,8.9,NW,21.93,2.7,10.2,12.3,12.83,4.2,9.5
2017/3/29,0,9.4,16.2,2.2,69,1017,NW,2,7.8,SW,18.66,3.3,7.8,12.4,10.35,4.1,10.2
2017/3/30,0,13.1,21,6.9,67.8,1013.7,NW,2,7.4,NNW,16.92,6.9,6.4,12.4,9.19,4.3,11.8
2017/3/31,12,7.2,10.3,5.5,85.6,1011.6,NW,2.2,7.8,NW,2.18,4.9,0,12.4,-1.59,0.9,9.7
2017/4/1,1.2,7.9,12.5,4.2,78,1007.2,NW,2.8,10,NNW,14.87,4,4.9,12.4,7.72,3.3,9.8
2017/4/2,0,8.2,16.3,1.2,65.8,1007.9,NW,2.8,14.4,NNW,25.19,1.2,12.3,12.5,15.12,5.5,10.2
2017/4/3,0,10.4,18,0.7,62.7,1012.8,WNW,2.2,8.1,NNW,22.6,2.7,10.4,12.5,13.19,5.3,10.9
2017/4/4,0,12.6,20.9,5.5,61.2,1018.8,NW,2.1,7.8,SSW,24.92,4.6,12,12.5,14.93,6,12.3
2017/4/5,0,13.3,19.9,5.2,67.2,1020.1,WNW,1.5,6.6,SW,15.62,6.9,5.2,12.6,8.29,3.8,12.2
2017/4/6,2.2,14.4,20.1,7.8,79.4,1015.4,NW,1.4,6.8,NNW,7.78,10.5,0,12.6,2.89,2.1,12.4
2017/4/7,9.2,16.2,19.7,13.9,95.3,1010,NW,1,3.5,NW,3.11,15.4,0,12.7,-0.01,0.7,13.5
2017/4/8,9.8,17.8,20.5,15.8,96.5,1006.2,NW,0.6,2.1,NNW,2.63,17.2,0,12.7,-0.14,0.5,14.5
2017/4/9,4.8,14.5,17.5,8.7,83.6,1005.4,NW,2.5,11.8,NNW,8,11.7,0,12.7,3.18,2.4,14.4
2017/4/10,0,11.7,14.8,6.4,68.9,1011.2,E,2.1,8.5,NW,8.29,6.1,0,12.8,2.86,2.8,12.4
2017/4/11,26.2,12.1,13.5,10.6,89.3,998.1,ESE,2.3,10.4,ESE,1.7,10.4,0,12.8,-1.56,0.9,12
2017/4/12,0,11.2,13.9,4.6,78.3,1003.5,NNW,2.5,10.6,NNW,6.57,7.5,0,12.8,1.78,2.2,12
2017/4/13,0,10.6,19.3,2.4,70.6,1010.1,NW,2,7.3,SW,21.39,4.7,8.9,12.9,12.62,4.6,12
2017/4/14,0,13.8,24.1,4.1,64.4,1011.6,NW,1.9,7.8,ESE,24.57,5.9,11.1,12.9,14.96,5.8,13.1
2017/4/15,4,16,21.9,11.2,76.3,1010.5,NW,1.5,7,NNW,12.27,11.6,2.4,12.9,6.32,3.2,13.7
2017/4/16,0.2,17.4,25.4,9.9,76.2,1010.4,NW,1.3,5.7,S,20.36,12.6,8.1,13,12.45,4.6,15
2017/4/17,63.8,16.4,21.9,12.2,89,1002.5,NW,1.2,7.5,SE,5.87,14.5,0,13,1.94,1.4,14.8
2017/4/18,8.6,17.6,22.2,11,75.6,992.3,NW,2,11.2,NNW,15.82,12.9,4.8,13,9.1,4.3,15.9
2017/4/19,0.2,14.4,20.6,8.1,67.9,1000,NNW,2.3,12.6,NNW,22.23,7.8,9.3,13.1,13.41,5.6,15.2
2017/4/20,0,13.2,19.5,6.8,68.2,1007.1,NNW,1.6,6.8,N,15.54,7,4.6,13.1,8.38,3.9,14.1
2017/4/21,0,15.4,21.4,10.8,68.3,1002.7,NNW,1.6,8.6,NNW,12.67,9.4,2.5,13.1,6.37,3.6,14.7
2017/4/22,0,12.9,18.4,6.3,64.9,1004.7,NNW,2.6,11.3,NNW,24.81,5.6,10.9,13.2,15.21,6.2,14.7
2017/4/23,0,12.5,20,4.8,62.6,1011.5,NNW,2.8,10.9,NNW,27.66,4.7,12.9,13.2,17.27,6.9,14.2
2017/4/24,0,15.7,24.3,4.8,64.1,1017.5,WNW,1.7,7.5,ESE,26.18,8.1,11.8,13.2,16.35,6.2,15.1
2017/4/25,0,17.2,22.3,10.4,68,1017.6,NW,1.5,6.3,SW,16.14,10.8,4.8,13.3,9.11,4.3,15.8
2017/4/26,10.6,14.6,16.6,13.2,91,1010,NW,1.3,6.6,NNW,3.15,13.2,0,13.3,-0.21,0.9,15
2017/4/27,1,13.7,18.1,8.5,65.9,1002.8,NNW,2.3,9,NNW,21.34,6.6,8.3,13.3,12.72,5.5,15
2017/4/28,0,13.6,21.7,4.8,60.9,1002.1,WNW,1.8,7.4,NNW,22.88,5,9.4,13.4,13.73,5.6,14.4
2017/4/29,2.2,14.1,21.6,8.5,72.9,1001.8,WNW,2,19.5,N,17.94,8.8,5.9,13.4,10.41,4.4,14.7
2017/4/30,0,17.3,27.6,7.1,62.7,1004.8,NW,1.6,7.5,SW,26.49,8.4,11.8,13.4,16.69,6.6,15.5
2017/5/1,0,16.4,25.3,9.8,69,1009.1,NNW,1.9,9.6,NNW,15.31,10.2,4.1,13.5,8.49,4.3,15.5
2017/5/2,0,16,24.2,8.3,62.4,1016.7,NNW,1.9,6,NW,26.95,7.8,12,13.5,16.97,6.7,15.9
2017/5/3,0,17.3,23.8,11,68.9,1019.5,NW,1.4,5.6,SSW,17.41,11,5.4,13.5,10.14,4.4,16.2
2017/5/4,0,18,23.6,10.3,70.5,1015.6,ESE,1.7,6.6,ESE,17.9,12.3,5.8,13.6,10.62,4.8,16.3
2017/5/5,0,20.8,27.4,14.1,68.7,1010,WNW,1.3,6,N,20.26,14.4,7.3,13.6,12.58,5.3,17.8
2017/5/6,0.8,18.1,22.8,14.4,82.9,1007.3,NW,1.5,10.5,NNW,4.87,15.1,0,13.6,1.25,1.7,16.9
2017/5/7,0,19,26.1,13.3,55,1005.8,NW,1.8,9,N,26.1,7.9,11.3,13.6,16.27,7.4,17.4
2017/5/8,0,20,29.3,9.9,50.4,1006.4,NNW,1.9,7.4,NW,27.19,8,12,13.7,16.95,8.1,17.5
2017/5/9,0.4,17.8,24.1,14.2,64.3,1010.3,WNW,1.3,8.6,SW,8.03,10.5,0,13.7,3.03,3,16.9
2017/5/10,1,17,21.4,14.5,90.3,1005.4,NW,1,4.2,NNW,5.65,15.4,0,13.7,1.92,1.3,16.7
2017/5/11,0.4,19.4,25.5,13.7,75.6,1007,WNW,1.4,7.8,SW,19.92,14.5,7,13.8,12.48,4.8,17.6
2017/5/12,2,20.7,26.4,13.1,73.2,1007.2,NW,1.2,4.4,SE,16.64,15.3,4.7,13.8,10.08,4.2,17.8
2017/5/13,0.4,17.4,20.1,15.5,91.5,1001.5,NW,0.7,4.3,SE,3.49,16,0,13.8,0.37,0.8,17.3
2017/5/14,0.6,20.4,26.9,15.8,75.9,1002.9,WNW,1.1,7.4,NW,17.82,15.4,5.5,13.8,11.03,4.2,18.1
2017/5/15,0.8,19.5,25.9,13.9,66.3,1003.8,NW,1.5,8.1,NNW,20.37,12,7.2,13.9,12.51,5.4,18.6
2017/5/16,0.6,17,21.5,10.8,66.4,1004.5,NNW,1.6,6.3,NNW,14.64,10.3,3.3,13.9,8.01,4.2,17.7
2017/5/17,0.6,17.8,24.4,12.5,56.4,1003.7,NNW,2.5,10.3,NNW,17.53,8.4,5.2,13.9,9.9,6.2,17.9
2017/5/18,0.4,19.4,28,12,53.9,1008.1,NNW,2,7.7,NW,28.79,8.5,12.8,13.9,18.34,8.3,19
2017/5/19,0.2,20.4,29.7,9.5,51,1009.9,WNW,1.3,7.1,SW,28.37,8.9,12.5,14,17.96,7.6,19.8
2017/5/20,0,22.4,32.4,11.9,58.4,1010,NW,1.4,6.4,SW,26.75,13.1,11.4,14,17.24,7.4,21
2017/5/21,0,23.7,32.2,15.5,57.6,1009.7,WNW,1,4.7,SW,22.36,13.9,8.4,14,14.06,6.2,22.1
2017/5/22,0,23.5,31.3,15.5,56.9,1008.8,NW,1.4,6.2,S,27.13,13.5,11.7,14,17.57,7.7,22.7
2017/5/23,0,23.1,30.6,16.2,60.4,1005.7,NW,1.4,9.5,SW,24.56,14.3,9.9,14,15.78,6.9,22.8
2017/5/24,0.4,20.4,24.3,18.5,82.2,1003.2,WNW,1.1,3.3,NNW,5.26,17.2,0,14.1,1.81,1.7,21
2017/5/25,1,20.2,24.4,18.1,86.8,999.9,WNW,0.9,4.5,SW,10.01,17.8,0,14.1,5.52,2.3,20.7
2017/5/26,0.8,21.5,29,16.4,72.1,997.7,NW,2.2,10.9,NNW,23.35,15.7,9,14.1,15.21,6.5,21.9
2017/5/27,0.2,18.4,23.8,12.8,62.5,1004.8,NW,2.1,8,N,23.54,10.8,9.2,14.1,14.71,6.6,20.7
2017/5/28,0.2,19.3,26.6,12.6,64.5,1007.3,NNW,1.9,7,NNW,21.34,11.8,7.7,14.1,13.2,6.1,20.4
2017/5/29,0.2,22.3,31.2,12.5,60.5,1006.2,NW,1.3,6,NNW,25.7,13.4,10.6,14.2,16.58,6.9,21.8
2017/5/30,0,24.3,31.9,16,67.6,1004.5,NW,1.2,4.9,SSW,23.1,17.5,8.8,14.2,15.18,6.2,23.2
2017/5/31,0.2,23.9,30.8,18.5,70.9,999.7,WNW,1.2,5.1,SSW,19.33,17.8,6.3,14.2,12.45,5.2,23.7
2017/6/1,0.6,22.9,28.7,17.4,73.9,993.2,WNW,1.3,14.8,NNW,20.97,17.6,7.4,14.2,13.68,5.4,23.4
2017/6/2,0.2,18.8,24,12.3,70.6,995.3,NW,2,10.2,NNW,22.22,12.7,8.2,14.2,14.06,5.9,21.8
2017/6/3,0,17.6,23.9,11.5,66.4,1000.6,NNW,1.9,7.5,NNW,22.69,10.8,8.5,14.2,14.17,6,20.6
2017/6/4,0,18.5,24.9,12.8,59.6,1003.9,NNW,2.3,8.8,NNW,26.74,9.7,11.3,14.2,17.04,7.6,20.7
2017/6/5,0,18.9,26.3,11.9,59.6,1008.5,NNW,2.1,7.9,NNW,26.68,10,11.2,14.3,17.02,7.5,20.7
2017/6/6,0,20.7,27.6,12.8,57.8,1011.7,NW,1.5,5,SSW,23.35,11.1,9,14.3,14.58,6.6,21.3
2017/6/7,0.2,18.8,20.6,17.5,89,1008.5,WNW,0.6,3.7,NW,3.49,16.9,0,14.3,0.48,0.9,20.3
2017/6/8,0,20.1,26.4,15.5,84.6,1001.8,WNW,1.1,8.6,NNW,9.74,17.3,0,14.3,5.24,2.4,20.7
2017/6/9,0,21.9,30.3,14.2,67.9,1001.2,WNW,1.3,5.4,SW,27.66,14.6,11.9,14.3,18.36,6.8,21.8
2017/6/10,0,22,29.9,14.3,66.4,1001,NNW,1.6,8.8,NNW,23.97,14.8,9.4,14.3,15.53,6.5,22.3
2017/6/11,0,19.9,26,14.9,61.3,1001.3,NW,2.1,8.7,NNW,14.98,11.7,3.3,14.3,8.37,5.4,21.3
2017/6/12,0,17.6,21.9,13.3,69.7,1006.8,NNW,2.1,13.3,NNW,18.3,11.8,5.5,14.3,10.98,5.1,20.1
2017/6/13,0,18.3,24.8,11.9,68.2,1007.2,NNW,1.7,7.3,NNW,20.14,11.8,6.8,14.3,12.38,5.3,20.3
2017/6/14,0,20.9,29.1,13.3,54.3,1003.4,NNW,1.6,6.4,SW,28.38,9.6,12.3,14.3,18.23,8,21.5
2017/6/15,0,22.8,31.5,13.2,55.6,1001.1,NW,1.3,6.3,S,28.14,12.6,12.2,14.3,18.26,7.7,22.6
2017/6/16,0,21.8,27.8,16.7,62.1,1003.4,NNW,2,9.1,NNW,23.49,13.9,9,14.3,14.97,7.1,22.8
2017/6/17,0,22.3,29.6,13.6,61.8,1005.1,NNW,1,4.2,NW,26.8,13.8,11.3,14.4,17.5,6.6,23
2017/6/18,0,22.9,28.5,18.5,68.9,1003.9,NNW,1.1,4.3,SW,14.57,16.6,3,14.4,8.67,4.2,23
2017/6/19,0,24.8,33.4,16.7,54.1,1004,NNW,1.5,6.7,NNW,27.35,13.6,11.6,14.4,17.78,8.3,24
2017/6/20,0,23.8,31.6,16.4,61.2,1004.5,NW,1.2,5.2,SSW,17.85,15.5,5.2,14.4,10.91,5.4,23.7
2017/6/21,0.6,20.6,23.4,18.2,89.6,998.4,SW,0.8,5.2,E,3.74,18.9,0,14.4,0.93,1.1,21
2017/6/22,0.2,22.3,27.5,17.6,75,1003.3,NNW,0.9,5.1,NNW,16.32,17.5,4.2,14.4,10.16,4.1,22.2
2017/6/23,0,25,32.4,17,67.9,1001.5,NW,0.8,4.2,SW,25.37,17.9,10.3,14.4,17.01,6.3,23.9
2017/6/24,0,25,29.8,19.4,70.1,999,WNW,1,4.4,NE,19.77,18.8,6.5,14.4,12.9,5.3,24.6
2017/6/25,0,22.4,24.4,20.9,90,995.8,NW,0.9,4,NNW,3.83,20.7,0,14.4,1.26,1.1,23.3
2017/6/26,0.2,23.6,29.2,18.7,73,1001.1,NNW,1.6,5.5,NNW,18.15,18.1,5.4,14.3,11.62,5.3,23.6
2017/6/27,0,23.7,29.7,19.5,74,1004.5,NNW,1.4,5.5,NNW,12.25,18.5,1.4,14.3,7.23,3.9,23.4
2017/6/28,0,24.3,30.2,21.2,84.6,1006.7,WNW,0.9,4.2,SSE,12.6,21.4,1.7,14.3,8,3.1,24
2017/6/29,0,24.8,28.4,21.2,80.6,1007.8,NW,1,4,SW,11.39,21.1,0.9,14.3,7,3.1,24.4
2017/6/30,0,24.1,28.5,21.9,88.9,1006.3,NW,0.5,4.4,NNW,6.78,22.1,0,14.3,3.74,1.6,23.9
2017/7/1,0,27.1,31.5,23.9,81.3,1003.5,WSW,1.1,7.2,WNW,14.79,23.4,3.2,14.3,9.98,4,25.3
2017/7/2,0,26,31.7,23,86.4,1005.6,NNW,1,9,NNW,12.56,23.4,1.7,14.3,8.33,3.1,25.4
2017/7/3,0,27.4,32.5,22.3,79.3,1004.2,NW,1,9.1,NNW,18.92,23.2,6,14.3,13.06,4.9,26.1
2017/7/4,0,26.1,30.6,24.1,87.2,1000.8,NW,0.8,4.3,SW,5.13,23.8,0,14.3,2.77,1.6,25.5
2017/7/5,0,24.2,28.2,21.7,91.9,1003.9,NW,1.3,6.7,NW,5.57,22.8,0,14.3,2.93,1.5,24.7
2017/7/6,0,25.7,31.8,19.8,76.2,1006,WNW,1.3,6,NNW,22.76,20.7,8.6,14.3,15.52,6,25.5
2017/7/7,0,26.6,33.4,22.1,79.3,1005.5,NW,1.2,6.3,NNW,21.17,22.4,7.5,14.3,14.6,5.4,26.3
2017/7/8,0,27.2,34.2,21.9,80.6,1005.2,W,0.9,5.6,N,20.5,23.2,7.1,14.2,14.26,5,26.8
2017/7/9,0,24.9,29.5,22.4,90.2,1004.2,NNW,0.7,10.2,S,5.39,23.1,0,14.2,2.85,1.4,25.5
2017/7/10,0,27.3,33.1,22.4,81.4,1004.3,WNW,1.1,4.3,SW,16.98,23.6,4.7,14.2,11.68,4.4,26.3
2017/7/11,0,29.1,34.8,23.3,73.4,1005.6,NW,1.1,6,SSW,23.15,23.5,8.9,14.2,16.25,6.3,27.6
2017/7/12,0,28,33.2,24.7,80.2,1004.2,NNW,0.9,5.1,SW,11.33,24.1,0.9,14.2,7.48,3.3,27.2
2017/7/13,0,28.8,34,23.9,73,1003.2,NW,1,4.8,SW,19.75,23.1,6.6,14.2,13.6,5.5,27.5
2017/7/14,0,28.1,32.1,24,77.1,1004.7,NW,1.2,5.4,SSW,15.99,23.6,4.1,14.2,10.86,4.6,27.4
2017/7/15,0,28.8,34.1,23.4,72.5,1006.9,NW,0.9,4.4,SW,20.78,23,7.4,14.1,14.34,5.7,27.7
2017/7/16,0,27,35.5,23.3,81.6,1006.7,NW,1.1,7.2,N,16.33,23.3,4.4,14.1,11.12,4.2,27.2
2017/7/17,0,27.3,33.1,23.5,83.8,1005.2,NW,1,4.3,N,13.58,24.1,2.5,14.1,9.19,3.5,26.8
2017/7/18,0,26.4,31.2,23.6,85.4,1002.7,NW,0.9,5.2,NNW,13.87,23.7,2.7,14.1,9.33,3.5,26.6
2017/7/19,0,28,33.3,23.7,79.9,1001.5,WNW,0.7,5,NNE,16.93,24,4.8,14.1,11.67,4.3,27.1
2017/7/20,0,28.5,33,23,73.7,1003.9,E,1,4.9,SE,16.95,23,4.8,14,11.46,4.9,27
2017/7/21,0,28.7,33.7,24.2,75.9,1005.3,NE,1,5.9,NNE,18.33,23.9,5.8,14,12.64,5.1,27.2
2017/7/22,0,29.6,35.7,24.1,72.1,1005.4,WNW,0.9,5.2,NNW,23.15,23.7,9.1,14,16.22,6.3,28
2017/7/23,0,27.7,31.1,24.3,80.7,1000.8,NW,0.7,4.7,SW,7.96,24.1,0,14,4.91,2.5,27.1
2017/7/24,0,27.9,32.6,24.3,80.8,997.8,WNW,0.8,4,SSW,8.37,24.3,0,13.9,5.26,2.6,26.7
2017/7/25,0,27,30.7,25.6,88.9,997.1,NNW,0.6,3.2,NNW,3.78,25.1,0,13.9,1.98,1.2,26.3
2017/7/26,0,27.3,31.4,23.7,77.9,999.5,NNW,1.9,8.2,NNW,22.55,22.9,8.8,13.9,15.63,6.5,26.7
2017/7/27,0,27.3,31.5,23.6,80.9,1002.1,NW,1,5.4,NNW,10.52,23.6,0.6,13.9,6.74,3.1,26.3
2017/7/28,0,27.5,34,24.4,85.8,1002.5,NNW,0.8,6.6,NNW,12.79,24.8,2.1,13.9,8.72,3.2,26.8
2017/7/29,0,29,34.2,25.4,77.7,1000.7,NNW,1.2,4.9,NNW,16,24.6,4.3,13.8,11.02,4.7,27.1
2017/7/30,0,28.5,34.2,24.4,79.3,1001,NNW,0.9,3.7,NNW,14.88,24.5,3.6,13.8,10.17,4.1,27.2
2017/7/31,0,29.3,34.9,25.7,79.5,1002.4,WNW,0.9,4.4,NNW,16.54,25.3,4.8,13.8,11.57,4.5,27.8
2017/8/1,0,28.6,33,24.3,74.7,1002.2,NNW,1.4,6.3,NNW,19.28,23.5,6.6,13.8,13.22,5.8,27.5
2017/8/2,0,28.4,34.8,23,72.5,1001.2,NNW,0.9,4.4,N,17.55,22.7,5.5,13.7,11.78,5,27.1
2017/8/3,0,27.7,31.4,25.1,73.1,1001.8,E,1,6.8,SE,12.16,22.4,1.8,13.7,7.67,3.9,26.5
2017/8/4,0,28.9,32.2,26.7,73.8,1001.9,E,1.1,5,NE,11.83,23.8,1.6,13.7,7.67,4,26.7
2017/8/5,0.2,28.1,32.9,25.1,82.6,999.9,NW,0.7,5,SSW,9.18,24.8,0,13.7,5.95,2.6,26.6
2017/8/6,0,28.5,35.9,24.1,81.2,997.7,NW,0.9,8,SW,21.07,24.5,8,13.6,14.84,5.2,27.1
2017/8/7,0,26.2,27.3,24.8,89.9,986,ENE,1.5,9.7,NNW,1.48,24.5,0,13.6,0.13,1,25.8
2017/8/8,1,26.9,31,24.6,80.3,989.9,WNW,1.8,9.6,NNW,14.74,23.1,3.7,13.6,9.76,4.5,25.9
2017/8/9,0,28.9,35.6,22.9,73,992.7,NNW,1,5.6,SW,23.64,23.2,9.9,13.5,16.39,6.4,27.5
2017/8/10,9.4,28.9,35.1,24.9,79.1,993.6,NW,1.1,5.9,NNW,15.27,24.7,4.1,13.5,10.47,4.3,28.1
2017/8/11,5.6,28.3,35.5,23.8,79.6,996.4,NNW,0.8,4.4,NNW,13.92,24.1,3.2,13.5,9.37,3.8,27.8
2017/8/12,0,27.1,31.3,21.9,74.7,1000.3,NNW,1.7,7.9,NNW,19.46,22,7.1,13.4,13.03,5.9,27.6
2017/8/13,0,26.3,31.5,21.1,74.4,1002.3,NNW,1.3,7.3,NW,18.52,21.1,6.4,13.4,12.19,5.2,27.1
2017/8/14,0,26.4,31.5,22,77.2,1001.1,NNW,1.3,4.9,N,14.06,22,3.4,13.4,9,4.2,26.9
2017/8/15,37,24.5,27.4,22.3,91.5,997.9,NNW,0.5,2.2,NNW,4.6,23.1,0,13.4,2.21,1.1,25.9
2017/8/16,0.2,26.9,32.7,23.7,85.3,998.7,NW,0.7,3.2,NE,13.17,24.1,2.8,13.3,8.78,3.2,27
2017/8/17,0,28.1,32.7,23.5,80,1001.8,NNW,0.8,3.7,SSW,13.65,24.2,3.2,13.3,9.11,3.7,27.5
2017/8/18,9,27.4,33.6,24.3,83,1003.1,NNW,1,5.1,SW,13.63,24.2,3.2,13.3,9.1,3.6,27.7
2017/8/19,0,28.3,35.4,23.5,73.6,1005.2,NNW,1.3,5.9,NNW,25.03,22.7,11.2,13.2,17.26,6.8,28.3
2017/8/20,0,28.3,35.1,22.8,74,1005.6,NNW,0.9,3.7,N,20.88,22.9,8.3,13.2,14.19,5.6,28.4
2017/8/21,0,28.6,35,24,73.1,1006.6,NW,0.9,5.6,SW,20.51,22.9,8.1,13.2,13.92,5.6,28.7
2017/8/22,0,28.3,32.7,24.7,79.1,1007.9,NW,0.8,5.8,SSW,12.09,24.2,2.2,13.1,7.93,3.5,28.3
2017/8/23,0.8,28.6,34.3,24.8,80.9,1007.5,NW,0.9,4.8,SW,14.55,24.8,4,13.1,9.89,4,28.4
2017/8/24,0,29.8,35.9,24.5,74,1003.8,WNW,0.9,5.7,N,22.55,24.2,9.7,13.1,15.66,6.1,29.3
2017/8/25,0,29.3,34.6,24.8,77.4,1000.7,NNW,0.9,6.2,SSW,12.53,24.7,2.6,13,8.33,3.8,28.7
2017/8/26,0.8,25.8,30.4,21.3,77.7,1004.1,NW,1.1,8.6,N,13.11,21.5,3.1,13,8.15,3.7,27.5
2017/8/27,0.2,26.5,33.8,19.8,66.3,1008.8,NW,1.1,4.3,SW,23.81,18.5,10.7,13,15.58,6.5,27.4
2017/8/28,0,27.4,32.1,21.7,78.3,1006.5,WNW,0.8,3.3,NNE,11.58,23.1,2.1,12.9,7.3,3.4,27.3
2017/8/29,0,29,33.7,24.4,75.3,1003.9,NW,0.8,5.1,NNW,16.42,24,5.6,12.9,11.02,4.6,28.4
2017/8/30,0,26.2,31.7,21.9,73.4,1002.2,NNW,1.8,10.2,NNW,16.85,20.9,5.9,12.9,10.74,5.4,27.6
2017/8/31,0,24.6,29.9,19.5,64,999.8,NNW,1.8,9.4,NNW,21.39,16.9,9.2,12.8,13.4,6.8,26.3
2017/9/1,0,23.9,29.6,17,65.7,999.9,NW,1.8,10.1,NNW,24,16.5,11.1,12.8,15.3,7.1,25.7
2017/9/2,0,23.7,28.5,18.6,70.2,1000.2,NNW,1.8,11.8,NW,22.76,17.6,10.3,12.8,14.56,6.5,25.7
2017/9/3,0,23.2,29.5,17.5,69.2,1005.2,NW,1.8,8.1,NNW,19.15,16.8,7.7,12.7,11.79,5.8,25.3
2017/9/4,0,22.4,28.9,17.7,70.3,1009.4,NW,1.4,4.8,SW,14.58,16.2,4.5,12.7,8.38,4.4,24.5
2017/9/5,9,22.9,29.8,17,75.4,1007.1,WNW,1,4,NNW,11.26,17.9,2.1,12.7,6.21,3.3,24.2
2017/9/6,0.2,24.1,27.2,21.3,88,1001.1,WNW,0.7,3.5,SSW,7.03,22,0,12.6,3.75,1.8,24.6
2017/9/7,11.2,24.9,28,22.9,91.6,998.1,NW,0.8,4,NNW,4.8,23.4,0,12.6,2.36,1.3,24.9
2017/9/8,0,24.2,29.6,19.3,76.9,1001.6,NNW,1.8,8.7,NNW,22.14,19.6,10.2,12.6,14.39,6,25.4
2017/9/9,4.4,24.2,32.1,16.9,75.4,1006.4,WNW,1,5.4,SW,21.32,18.9,9.6,12.5,13.7,5.2,25.1
2017/9/10,0.2,25.2,31.4,20.4,78.4,1008.3,WNW,1,4.4,NNW,13.9,20.8,4.2,12.5,8.54,3.8,25.2
2017/9/11,0.2,24.5,29.4,20.4,80,1005.5,NW,1.2,6.3,SW,7.66,20.6,0,12.5,3.94,2.6,24.6
2017/9/12,67.4,23.2,27.8,20.7,92.4,1004.2,NNW,0.7,3.3,SW,4.58,21.9,0,12.4,1.93,1.1,23.9
2017/9/13,0.2,24.4,31.5,19.6,77.8,1009.1,NW,1.3,6.2,SSW,21.22,19.9,9.8,12.4,13.71,5.4,24.8
2017/9/14,0,22.5,28.8,16.3,74,1010.9,NNW,1.6,7.4,NNW,18.96,17.3,8.2,12.3,11.64,5.2,24.3
2017/9/15,0,20.4,25.6,15.6,72.9,1011.3,NNW,1.7,6.7,NNW,13.96,15.1,4.5,12.3,7.7,4.2,22.7
2017/9/16,22,19.6,20.8,18.5,91.2,1009,NW,0.9,5.8,NNW,0.87,18.1,0,12.3,-1.36,0.5,21.7
2017/9/17,67,23.1,24.7,20.9,81.2,994.7,E,1.4,7.2,S,1.57,19.7,0,12.2,-0.67,1.4,21.9
2017/9/18,2.4,22.8,27.5,18.7,78.9,999.3,NNW,1.6,8.7,NNW,15.61,18.8,5.9,12.2,9.38,4.3,23.2
2017/9/19,0,22.1,28.1,16.2,75.9,1005.3,NW,1.3,6.3,SSW,16.6,17.3,6.7,12.2,9.87,4.3,23.1
2017/9/20,0.8,22,26.7,17.4,82.4,1004.3,WNW,1,5.2,N,7.99,18.7,0.3,12.1,3.85,2.3,22.9
2017/9/21,0,20.8,28.2,15.5,74.3,1007.6,NNW,1.3,5.7,NNW,20.32,15.5,9.7,12.1,12.33,5,22.7
2017/9/22,2.8,19.4,23.2,14.9,88.8,1008.4,WNW,0.9,4.9,NNW,2.43,17.5,0,12.1,-0.33,0.9,21.3
2017/9/23,0.4,22.2,26.7,18.6,81.4,1008,NNW,1.2,5,NNW,12.04,18.7,3.5,12,6.75,3.1,22.6
2017/9/24,0,21.6,27,17.4,75.7,1009.2,WNW,1.4,5.6,NNW,15.15,16.8,5.9,12,8.68,4.1,22.4
2017/9/25,0,21.8,30,15.4,73.8,1008.7,NW,1.1,5.7,SSW,20.13,16.2,9.9,11.9,12.21,4.9,22.5
2017/9/26,0,22.5,30.1,16.2,73,1008,NW,1.2,4.5,SW,19.82,16.8,9.7,11.9,12.01,5,22.8
2017/9/27,1,22.6,27.7,18.7,81.7,1002.9,NW,1,4.1,SE,7.36,19.1,0.1,11.9,3.41,2.2,22.5
2017/9/28,7.8,20.6,24,14,86.2,997.7,NW,1.2,10.8,WNW,7.74,18.1,0.4,11.8,3.56,2,22.4
2017/9/29,0.2,19.1,25.5,13.8,78,1008.6,NW,1.5,5.4,SW,17.41,14.7,8,11.8,10.04,4.2,21.4
2017/9/30,0,19.5,26.7,15.1,72.7,1015.2,NNW,1.5,5.6,NNE,17.09,13.8,7.9,11.8,9.65,4.5,21.4
2017/10/1,0,19.6,26.4,11.6,75.6,1015.3,NW,1.2,5.9,NNW,13.32,14.8,5,11.7,7.05,3.4,20.7
2017/10/2,41.8,19.9,21.1,18.3,94.5,1008.7,NW,0.8,2.4,NNW,1.44,19.1,0,11.7,-0.83,0.5,20.8
2017/10/3,5.2,20.8,25.6,15.3,86.1,1006.3,NW,1.4,8.8,NNE,10.32,18.3,2.7,11.6,5.38,2.6,21.7
2017/10/4,0.2,16.3,21.9,10.9,72.4,1014.4,NW,1.7,8.7,NNW,14.06,10.9,5.8,11.6,7.14,3.8,20.1
2017/10/5,0,17.5,23.8,10.5,71.5,1018.4,WNW,1,3.5,NNW,14.29,11.9,6,11.6,7.36,3.5,19.3